Wind_Speed
10 12 12 10 11 9 9 5 7 4 4 12 7 8 3 2 1 5 7 4 4 10 14 17 21 21 25 20 15 14 18 21
9 10 9 13 7 9 9 8 5 5 5 4 5 6 6 4 2 7 8 3 3 8 12 14 16 17 20 23 22 17 16 19
9 14 17 11 13 10 8 4 5 6 4 5 4 1 9 5 2 8 9 5 4 8 11 13 14 14 16 19 20 21 20 18
17 5 6 16 22 20 11 14 10 9 4 7 8 7 8 5 5 7 9 9 10 11 12 12 12 12 13 14 17 18 19 20
11 10 9 13 14 14 16 14 9 10 6 6 11 11 8 8 7 7 10 12 13 13 12 10 9 9 9 10 13 13 14 16
11 15 15 19 16 17 17 12 12 11 8 9 10 10 12 10 9 10 11 12 11 10 9 7 7 6 7 7 8 9 11 12
14 4 7 11 17 19 21 20 15 10 17 10 9 9 11 10 11 12 14 14 13 12 12 11 9 5 3 7 9 9 9 9
17 13 10 9 11 13 17 21 12 8 5 7 11 12 11 12 12 13 15 16 15 15 16 18 16 13 7 2 6 8 7 5
14 14 13 13 15 13 12 9 10 14 3 16 14 13 12 13 14 14 15 14 13 9 12 13 15 12 14 10 6 4 3 1
12 11 15 4 3 6 10 5 6 4 11 16 17 16 13 12 13 14 15 15 16 15 12 11 12 10 10 12 11 10 9 7
6 13 5 5 6 9 12 10 8 13 16 20 21 21 15 12 13 13 13 13 14 14 12 8 8 8 9 10 11 10 11 9
10 12 12 5 12 1 6 9 14 19 21 23 25 9 9 11 11 12 11 11 11 10 9 9 10 10 11 11 11 11 11 13
10 12 7 7 4 2 10 4 16 24 24 19 7 9 17 12 9 8 8 9 8 8 9 10 10 10 11 12 11 12 14 15
8 11 6 3 5 5 6 14 18 23 15 13 18 18 14 9 6 5 5 7 9 9 11 12 14 14 14 14 14 13 13 15
5 4 4 4 7 12 13 19 19 20 19 20 19 14 8 5 3 5 7 8 10 10 12 11 11 14 15 17 18 18 17 17
8 8 12 14 15 16 18 20 19 18 18 15 14 10 7 4 3 5 8 9 10 10 11 13 15 14 14 18 19 19 20 19
15 14 17 14 16 17 18 19 18 16 14 11 9 7 5 4 5 6 8 10 10 11 12 13 14 15 17 18 20 21 20 19
4 23 8 19 16 15 16 15 14 13 12 10 8 7 5 5 6 6 8 9 11 12 12 13 15 15 15 18 20 21 19 18
23 19 23 21 16 14 15 14 13 12 10 9 8 7 7 6 6 8 9 11 11 13 14 15 15 17 19 20 20 21 19 19
Wind_Direction
216 208 226 182 229 260 279 222 276 148 201 243 211 234 261 272 6 25 9 24 170 186 190 195 201 205 205 211 205 213 223 229
188 217 219 257 233 199 232 267 256 174 263 306 206 172 175 192 326 351 360 14 142 173 185 192 196 205 209 217 223 222 222 230
191 207 206 194 217 230 296 247 265 235 151 87 64 159 168 150 34 11 16 48 119 153 165 177 184 193 201 211 220 226 233 227
209 151 271 225 220 223 227 217 243 300 66 79 108 118 143 115 53 43 62 79 99 124 145 159 170 183 198 205 216 223 226 232
193 177 204 228 225 257 232 245 230 243 216 93 125 134 137 127 92 82 89 92 99 108 125 138 153 172 188 205 212 219 224 233
217 222 203 210 224 224 237 227 234 219 242 134 144 145 142 130 111 101 99 93 92 94 100 120 139 159 180 204 212 217 220 230
241 229 248 214 217 219 227 240 246 238 226 110 143 142 128 122 112 102 93 82 75 73 64 57 71 74 214 218 220 218 227 230
227 211 226 221 229 214 227 239 255 264 231 100 119 135 132 118 112 101 88 79 75 71 65 49 34 39 19 315 212 208 222 228
218 211 213 231 225 219 229 224 256 230 146 140 141 132 126 116 110 98 86 77 66 74 68 46 21 52 30 32 67 122 138 155
227 168 214 111 188 233 213 183 207 134 140 139 130 120 108 104 102 93 84 75 66 64 98 77 27 46 38 61 67 68 65 60
188 210 115 174 186 180 188 173 194 160 141 140 133 120 96 95 93 88 82 75 66 69 73 70 94 20 47 51 53 50 35 23
203 234 214 169 128 179 201 202 177 166 160 158 162 155 116 112 96 85 75 69 64 57 45 38 33 23 18 22 17 5 4 1
201 219 114 80 97 225 210 123 162 159 162 163 182 109 136 126 103 82 64 41 34 27 20 10 1 355 347 340 333 329 331 332
217 212 189 9 186 238 82 133 147 153 156 137 127 124 129 121 100 68 33 14 3 354 346 343 341 338 339 333 323 322 323 325
358 57 69 93 107 108 121 127 132 135 134 135 132 133 129 115 56 8 4 351 346 335 336 341 338 341 341 329 326 323 324 321
167 91 100 101 106 112 117 118 122 124 125 128 125 121 111 90 38 7 357 359 355 351 341 352 347 348 346 338 333 334 330 324
102 124 113 110 115 119 116 115 112 108 105 105 102 88 81 51 27 11 356 354 356 349 348 345 345 348 347 340 342 345 341 333
162 161 139 133 127 124 116 108 103 102 96 86 85 78 61 39 23 8 2 353 352 348 343 340 345 343 338 341 345 339 339 330
124 131 130 128 122 115 108 102 95 95 92 92 82 77 66 50 18 7 4 2 357 349 345 345 332 325 329 335 337 333 332 328
Height
1513 1517 1519 1522 1532 1515 1524 1525 1536 1524 1522 1510 1515 1517 1521 1521 1524 1525 1524 1524 1525 1526 1529 1532 1534 1537 1542 1544 1545 1548 1551 1554
1512 1518 1519 1519 1510 1532 1525 1550 1558 1531 1535 1528 1516 1514 1520 1521 1523 1523 1524 1524 1523 1525 1527 1530 1534 1536 1539 1543 1544 1547 1550 1552
1518 1516 1513 1521 1522 1519 1514 1519 1536 1542 1524 1507 1513 1515 1518 1521 1524 1525 1524 1523 1523 1524 1526 1530 1532 1535 1537 1540 1543 1544 1547 1550
1513 1504 1505 1500 1508 1509 1524 1532 1525 1521 1520 1506 1512 1516 1518 1523 1525 1526 1525 1524 1525 1526 1528 1530 1532 1535 1537 1539 1541 1543 1546 1545
1514 1512 1512 1511 1506 1501 1499 1502 1516 1532 1520 1509 1515 1519 1522 1524 1526 1527 1527 1527 1527 1528 1530 1532 1534 1535 1537 1538 1540 1542 1542 1542
1508 1502 1498 1513 1509 1506 1503 1515 1516 1514 1511 1514 1514 1518 1522 1524 1527 1528 1529 1530 1530 1532 1533 1532 1533 1533 1534 1537 1539 1538 1540 1540
1494 1492 1498 1496 1504 1505 1507 1501 1508 1502 1505 1508 1513 1518 1523 1527 1529 1531 1531 1533 1535 1536 1537 1537 1533 1532 1532 1533 1535 1537 1536 1538
1498 1493 1499 1503 1495 1496 1501 1500 1498 1500 1503 1512 1520 1525 1527 1529 1532 1534 1535 1535 1536 1535 1534 1534 1536 1533 1531 1531 1531 1532 1534 1535
1501 1493 1499 1512 1498 1498 1497 1498 1502 1506 1499 1516 1523 1527 1530 1532 1535 1537 1537 1538 1536 1532 1530 1532 1539 1532 1536 1535 1532 1530 1531 1532
1491 1495 1523 1493 1493 1492 1497 1503 1509 1510 1514 1518 1526 1532 1536 1537 1538 1539 1541 1540 1539 1536 1530 1532 1540 1539 1538 1535 1535 1533 1533 1532
1502 1499 1498 1501 1498 1498 1501 1506 1509 1510 1518 1526 1532 1536 1541 1541 1541 1542 1543 1544 1543 1541 1542 1546 1544 1544 1537 1534 1533 1532 1533 1533
1491 1497 1511 1477 1492 1500 1497 1502 1507 1510 1520 1526 1528 1524 1541 1543 1544 1544 1545 1545 1547 1547 1546 1544 1542 1540 1537 1533 1530 1530 1531 1532
1487 1490 1495 1497 1505 1506 1509 1503 1503 1511 1520 1525 1526 1523 1540 1543 1544 1545 1545 1545 1545 1545 1544 1541 1539 1537 1535 1533 1531 1529 1529 1529
1476 1487 1499 1511 1508 1505 1505 1507 1508 1514 1521 1528 1533 1538 1542 1545 1546 1545 1545 1544 1543 1543 1541 1537 1536 1535 1533 1530 1529 1527 1525 1525
1498 1500 1513 1511 1510 1510 1511 1514 1519 1524 1528 1532 1535 1540 1542 1544 1545 1546 1544 1542 1540 1540 1540 1536 1533 1532 1529 1528 1525 1522 1519 1519
1497 1515 1515 1516 1517 1519 1520 1523 1527 1530 1533 1535 1538 1541 1543 1545 1544 1545 1545 1543 1541 1541 1539 1533 1530 1531 1528 1525 1523 1518 1513 1514
1509 1517 1520 1523 1525 1527 1528 1530 1532 1534 1536 1539 1540 1543 1543 1543 1544 1543 1544 1542 1540 1539 1536 1535 1532 1528 1526 1526 1519 1513 1512 1513
1493 1511 1511 1524 1529 1531 1532 1533 1534 1536 1538 1540 1543 1542 1544 1544 1544 1543 1542 1541 1539 1537 1536 1534 1530 1527 1524 1519 1516 1512 1513 1514
1503 1514 1520 1526 1530 1532 1533 1535 1537 1539 1541 1542 1541 1542 1542 1543 1541 1542 1541 1539 1537 1536 1534 1531 1526 1521 1519 1516 1514 1514 1513 1512